星链-34088 (STARLINK-34088)

导读

STARLINK-34088是美国太空探索技术公司SpaceX星链星座的一员,于2025年5月16日发射升空,属于低轨互联网通信卫星。星链星座旨在为全球用户提供高速卫星互联网服务,覆盖偏远地区及地面网络难以触及的区域。该卫星持续运行在近地轨道,是星链大规模组网中补充的一颗卫星,助力星座全球覆盖能力的拓展与完善。

基本信息
目录编号:
64025
目录名称:
STARLINK-34088
国际标识:
2025-102D
轨道中心:
EARTH
卫星名称:
星链-34088
卫星全名:
星链-34088 (STARLINK-34088)
卫星状态:
在轨 (已飞行394 天)
发射日期:
2025-05-16 UTC
国别 :
美国 (US)
星等 :
--
轨道信息
数据来源 国际轨道数据
星历时间: 2026-06-13T22:12:19+0800
11小时前
查看轨道信息
半长轴: 6950.183km
偏心率: 0.0003695
轨道倾角: 70.001°
近地点辐角 267.757°
升交点赤经 232.796°
平近点角 92.317°
近地点: 569.477km
远地点: 574.615km
周期: 96.107分钟
每日圈数: 14.983333
详细信息
固有亮度:
5
最大亮度:
2.5
卫星平台:
Starlink V1.0
覆盖范围:
全球
运营商:
太空探索技术公司
运营商所在国:
美国
制造商(研发单位):
太空探索技术公司
制造商所在国:
美国
使用方式:
暂无
卫星简介
Starlink 计划是 SpaceX 推出的全球卫星互联网项目,通过发射低轨道卫星,为全球尤其是偏远地区提供高速、低延迟的互联网服务。自 2019 年起,Starlink 已部署数千颗卫星,旨在缩小全球数字鸿沟,推动互联网普及。该项目还为军事、航空等行业提供通信支持,带来广泛经济效益。
2D轨道图
3D轨道图
轨道高度分析图
轨道倾角分析图
轨道综合分析图
查看轨道综合分析图